Time,TemperatureF,DewpointF,PressureIn,WindDirection,WindDirectionDegrees,WindSpeedMPH,WindSpeedGustMPH,Humidity,HourlyPrecipIn,Conditions,Clouds,dailyrainin,SoftwareType,DateUTC
2013-08-30 00:01:00,62.8,41.2,30.02,SW,228,0.0,0.0,45,0.00,,,0.00,VWS V14.01,2013-08-30 07:01:00,
2013-08-30 00:06:00,62.8,41.2,30.02,SW,228,0.0,0.0,45,0.00,,,0.00,VWS V14.01,2013-08-30 07:06:00,
2013-08-30 00:11:00,62.8,41.2,30.02,SW,228,0.0,0.0,45,0.00,,,0.00,VWS V14.01,2013-08-30 07:11:00,
2013-08-30 00:16:00,62.6,41.0,30.02,SW,228,0.0,0.0,45,0.00,,,0.00,VWS V14.01,2013-08-30 07:16:00,
2013-08-30 00:21:00,62.4,41.4,30.02,SW,228,0.0,0.0,46,0.00,,,0.00,VWS V14.01,2013-08-30 07:21:00,
2013-08-30 00:26:00,62.2,41.2,30.02,SW,228,0.0,0.0,46,0.00,,,0.00,VWS V14.01,2013-08-30 07:26:00,
2013-08-30 00:31:00,62.2,41.2,30.02,SW,228,0.0,0.0,46,0.00,,,0.00,VWS V14.01,2013-08-30 07:31:00,
2013-08-30 00:36:00,62.1,41.1,30.02,SW,229,0.0,0.0,46,0.00,,,0.00,VWS V14.01,2013-08-30 07:36:00,
2013-08-30 00:41:00,61.9,40.9,30.02,SE,136,0.0,0.0,46,0.00,,,0.00,VWS V14.01,2013-08-30 07:41:00,
2013-08-30 00:46:00,61.9,40.9,30.02,SE,136,0.0,0.0,46,0.00,,,0.00,VWS V14.01,2013-08-30 07:46:00,
2013-08-30 00:51:00,61.9,40.9,30.02,SE,137,0.0,0.0,46,0.00,,,0.00,VWS V14.01,2013-08-30 07:51:00,
2013-08-30 00:56:00,61.7,41.3,30.02,SE,137,0.0,0.0,47,0.00,,,0.00,VWS V14.01,2013-08-30 07:56:00,
2013-08-30 01:01:00,61.7,41.3,30.02,SE,137,0.0,0.0,47,0.00,,,0.00,VWS V14.01,2013-08-30 08:01:00,
2013-08-30 01:06:00,61.7,41.3,30.02,SE,137,0.0,0.0,47,0.00,,,0.00,VWS V14.01,2013-08-30 08:06:00,
2013-08-30 01:11:00,61.5,41.1,30.02,SE,138,0.0,0.0,47,0.00,,,0.00,VWS V14.01,2013-08-30 08:11:00,
2013-08-30 01:16:00,61.5,41.7,30.02,SE,138,0.0,0.0,48,0.00,,,0.00,VWS V14.01,2013-08-30 08:16:00,
2013-08-30 01:21:00,61.7,41.8,30.02,SSE,159,0.0,0.0,48,0.00,,,0.00,VWS V14.01,2013-08-30 08:21:00,
2013-08-30 01:26:00,61.7,41.8,30.02,SSE,158,0.0,0.0,48,0.00,,,0.00,VWS V14.01,2013-08-30 08:26:00,
2013-08-30 01:32:00,61.7,41.8,30.02,SSW,192,0.0,0.0,48,0.00,,,0.00,VWS V14.01,2013-08-30 08:32:00,
2013-08-30 01:37:00,61.7,41.8,30.02,SSW,192,0.0,0.0,48,0.00,,,0.00,VWS V14.01,2013-08-30 08:37:00,
2013-08-30 01:42:00,61.7,42.4,30.02,South,169,0.0,2.2,49,0.00,,,0.00,VWS V14.01,2013-08-30 08:42:00,
2013-08-30 01:47:00,62.1,42.7,30.02,SSW,208,0.0,0.0,49,0.00,,,0.00,VWS V14.01,2013-08-30 08:47:00,
2013-08-30 01:52:00,62.2,43.4,30.02,SSE,165,2.7,3.1,50,0.00,,,0.00,VWS V14.01,2013-08-30 08:52:00,
2013-08-30 01:57:00,62.2,43.4,30.02,SW,220,0.0,2.7,50,0.00,,,0.00,VWS V14.01,2013-08-30 08:57:00,
2013-08-30 02:02:00,62.4,44.1,30.02,WSW,240,0.0,2.2,51,0.00,,,0.00,VWS V14.01,2013-08-30 09:02:00,
2013-08-30 02:07:00,62.6,44.2,30.02,SSW,209,3.1,3.1,51,0.00,,,0.00,VWS V14.01,2013-08-30 09:07:00,
2013-08-30 02:11:00,62.6,44.2,30.02,SSW,210,0.0,2.7,51,0.00,,,0.00,VWS V14.01,2013-08-30 09:11:00,
2013-08-30 02:17:00,62.6,44.8,30.02,South,185,3.1,3.1,52,0.00,,,0.00,VWS V14.01,2013-08-30 09:17:00,
2013-08-30 02:22:00,62.8,44.9,30.02,South,185,0.0,2.7,52,0.00,,,0.00,VWS V14.01,2013-08-30 09:22:00,
2013-08-30 02:27:00,62.8,44.9,30.02,SE,142,2.2,2.2,52,0.00,,,0.00,VWS V14.01,2013-08-30 09:27:00,
2013-08-30 02:32:00,62.6,45.2,30.02,SE,142,0.0,0.0,53,0.00,,,0.00,VWS V14.01,2013-08-30 09:32:00,
2013-08-30 02:37:00,62.6,45.2,30.02,SE,142,0.0,0.0,53,0.00,,,0.00,VWS V14.01,2013-08-30 09:37:00,
2013-08-30 02:42:00,62.6,45.2,30.02,SE,142,0.0,0.0,53,0.00,,,0.00,VWS V14.01,2013-08-30 09:42:00,
2013-08-30 02:47:00,62.4,45.6,30.02,SE,142,0.0,0.0,54,0.00,,,0.00,VWS V14.01,2013-08-30 09:47:00,
2013-08-30 02:52:00,62.4,45.6,30.02,SE,142,0.0,0.0,54,0.00,,,0.00,VWS V14.01,2013-08-30 09:52:00,
2013-08-30 02:57:00,62.2,45.4,30.02,SE,142,0.0,0.0,54,0.00,,,0.00,VWS V14.01,2013-08-30 09:57:00,
2013-08-30 03:02:00,62.2,45.4,30.02,SE,142,0.0,0.0,54,0.00,,,0.00,VWS V14.01,2013-08-30 10:02:00,
2013-08-30 03:07:00,62.1,45.2,30.02,SE,142,0.0,0.0,54,0.00,,,0.00,VWS V14.01,2013-08-30 10:07:00,
2013-08-30 03:12:00,61.9,45.1,30.02,SE,142,0.0,0.0,54,0.00,,,0.00,VWS V14.01,2013-08-30 10:12:00,
2013-08-30 03:17:00,61.9,45.5,30.02,SE,142,0.0,0.0,55,0.00,,,0.00,VWS V14.01,2013-08-30 10:17:00,
2013-08-30 03:22:00,62.1,45.7,30.02,SE,142,0.0,0.0,55,0.00,,,0.00,VWS V14.01,2013-08-30 10:22:00,
2013-08-30 03:27:00,62.1,45.7,30.02,SE,142,0.0,0.0,55,0.00,,,0.00,VWS V14.01,2013-08-30 10:27:00,
2013-08-30 03:32:00,61.9,45.5,30.02,SE,142,0.0,0.0,55,0.00,,,0.00,VWS V14.01,2013-08-30 10:32:00,
2013-08-30 03:37:00,61.7,45.4,30.02,SE,142,0.0,0.0,55,0.00,,,0.00,VWS V14.01,2013-08-30 10:37:00,
2013-08-30 03:42:00,61.5,45.7,30.02,SE,142,0.0,0.0,56,0.00,,,0.00,VWS V14.01,2013-08-30 10:42:00,
2013-08-30 03:47:00,61.3,45.5,30.02,SE,142,0.0,0.0,56,0.00,,,0.00,VWS V14.01,2013-08-30 10:47:00,
2013-08-30 03:52:00,61.3,45.5,30.02,SE,142,0.0,0.0,56,0.00,,,0.00,VWS V14.01,2013-08-30 10:52:00,
2013-08-30 03:57:00,61.3,45.5,30.02,SE,142,0.0,0.0,56,0.00,,,0.00,VWS V14.01,2013-08-30 10:57:00,
2013-08-30 04:02:00,61.5,46.2,30.02,SE,142,0.0,0.0,57,0.00,,,0.00,VWS V14.01,2013-08-30 11:02:00,
2013-08-30 04:07:00,61.7,46.3,29.99,South,177,0.0,0.0,57,0.00,,,0.00,VWS V14.01,2013-08-30 11:07:00,
2013-08-30 04:12:00,62.1,47.1,29.99,SSE,159,0.0,0.0,58,0.00,,,0.00,VWS V14.01,2013-08-30 11:12:00,
2013-08-30 04:17:00,62.2,47.3,29.99,SSE,153,2.2,2.7,58,0.00,,,0.00,VWS V14.01,2013-08-30 11:17:00,
2013-08-30 04:22:00,62.2,47.3,29.99,ESE,119,3.1,3.1,58,0.00,,,0.00,VWS V14.01,2013-08-30 11:22:00,
2013-08-30 04:27:00,62.4,47.5,29.99,ESE,120,0.0,0.0,58,0.00,,,0.00,VWS V14.01,2013-08-30 11:27:00,
2013-08-30 04:32:00,62.4,47.5,29.99,South,174,2.2,3.1,58,0.00,,,0.00,VWS V14.01,2013-08-30 11:32:00,
2013-08-30 04:37:00,62.4,47.5,29.99,SSE,164,2.7,3.6,58,0.00,,,0.00,VWS V14.01,2013-08-30 11:37:00,
2013-08-30 04:42:00,62.4,47.5,29.99,South,182,0.0,0.0,58,0.00,,,0.00,VWS V14.01,2013-08-30 11:42:00,
2013-08-30 04:47:00,62.4,47.9,29.99,SSW,208,2.7,3.1,59,0.00,,,0.00,VWS V14.01,2013-08-30 11:47:00,
2013-08-30 04:52:00,62.2,47.8,29.99,SSW,208,0.0,0.0,59,0.00,,,0.00,VWS V14.01,2013-08-30 11:52:00,
2013-08-30 04:57:00,62.2,47.8,29.99,SSW,208,0.0,0.0,59,0.00,,,0.00,VWS V14.01,2013-08-30 11:57:00,
2013-08-30 05:02:00,62.1,47.6,29.99,SSW,209,0.0,0.0,59,0.00,,,0.00,VWS V14.01,2013-08-30 12:02:00,
2013-08-30 05:07:00,61.9,47.4,30.02,SSW,208,0.0,0.0,59,0.00,,,0.00,VWS V14.01,2013-08-30 12:07:00,
2013-08-30 05:12:00,61.7,47.2,30.02,SSW,209,0.0,0.0,59,0.00,,,0.00,VWS V14.01,2013-08-30 12:12:00,
2013-08-30 05:17:00,61.5,47.1,30.02,SSE,155,0.0,0.0,59,0.00,,,0.00,VWS V14.01,2013-08-30 12:17:00,
2013-08-30 05:22:00,61.5,47.5,29.99,SSE,155,0.0,0.0,60,0.00,,,0.00,VWS V14.01,2013-08-30 12:22:00,
2013-08-30 05:27:00,61.3,47.3,29.99,SSE,155,0.0,0.0,60,0.00,,,0.00,VWS V14.01,2013-08-30 12:27:00,
2013-08-30 05:32:00,61.3,47.3,29.99,SSE,155,0.0,0.0,60,0.00,,,0.00,VWS V14.01,2013-08-30 12:32:00,
2013-08-30 05:37:00,61.2,47.2,30.02,SSE,155,0.0,0.0,60,0.00,,,0.00,VWS V14.01,2013-08-30 12:37:00,
2013-08-30 05:42:00,61.2,47.6,30.02,SSE,155,0.0,0.0,61,0.00,,,0.00,VWS V14.01,2013-08-30 12:42:00,
2013-08-30 05:47:00,61.0,47.5,30.02,SSE,155,0.0,0.0,61,0.00,,,0.00,VWS V14.01,2013-08-30 12:47:00,
2013-08-30 05:52:00,61.0,47.5,30.02,SSE,156,0.0,0.0,61,0.00,,,0.00,VWS V14.01,2013-08-30 12:52:00,
2013-08-30 05:57:00,60.8,47.3,30.02,SSE,155,0.0,0.0,61,0.00,,,0.00,VWS V14.01,2013-08-30 12:57:00,
2013-08-30 06:02:00,60.6,47.1,30.02,SSE,155,0.0,0.0,61,0.00,,,0.00,VWS V14.01,2013-08-30 13:02:00,
2013-08-30 06:07:00,60.6,47.5,30.02,SSE,155,0.0,0.0,62,0.00,,,0.00,VWS V14.01,2013-08-30 13:07:00,
2013-08-30 06:12:00,60.8,47.7,30.02,SSE,156,0.0,0.0,62,0.00,,,0.00,VWS V14.01,2013-08-30 13:12:00,
2013-08-30 06:17:00,61.0,48.3,30.02,SSE,155,0.0,0.0,63,0.00,,,0.00,VWS V14.01,2013-08-30 13:17:00,
2013-08-30 06:22:00,61.0,48.3,30.02,SSE,155,0.0,0.0,63,0.00,,,0.00,VWS V14.01,2013-08-30 13:22:00,
2013-08-30 06:27:00,61.2,48.5,30.02,SSE,155,0.0,0.0,63,0.00,,,0.00,VWS V14.01,2013-08-30 13:27:00,
2013-08-30 06:32:00,61.2,48.5,30.02,SSE,155,0.0,0.0,63,0.00,,,0.00,VWS V14.01,2013-08-30 13:32:00,
2013-08-30 06:37:00,61.2,48.5,30.02,SSE,155,0.0,0.0,63,0.00,,,0.00,VWS V14.01,2013-08-30 13:37:00,
2013-08-30 06:42:00,61.2,48.5,30.02,SSE,155,0.0,0.0,63,0.00,,,0.00,VWS V14.01,2013-08-30 13:42:00,
2013-08-30 06:47:00,61.2,48.5,30.02,SSE,155,0.0,0.0,63,0.00,,,0.00,VWS V14.01,2013-08-30 13:47:00,
2013-08-30 06:52:00,61.3,49.1,30.02,SSW,210,0.0,2.2,64,0.00,,,0.00,VWS V14.01,2013-08-30 13:52:00,
2013-08-30 06:57:00,61.3,49.1,30.02,South,184,0.0,0.0,64,0.00,,,0.00,VWS V14.01,2013-08-30 13:57:00,
2013-08-30 07:02:00,61.5,49.2,30.02,SE,139,0.0,3.1,64,0.00,,,0.00,VWS V14.01,2013-08-30 14:02:00,
2013-08-30 07:07:00,61.7,49.4,30.02,SSW,212,2.2,2.7,64,0.00,,,0.00,VWS V14.01,2013-08-30 14:07:00,
2013-08-30 07:12:00,61.7,49.8,30.02,SW,216,0.0,2.2,65,0.00,,,0.00,VWS V14.01,2013-08-30 14:12:00,
2013-08-30 07:17:00,61.7,49.8,30.02,SSW,202,3.1,3.1,65,0.00,,,0.00,VWS V14.01,2013-08-30 14:17:00,
2013-08-30 07:23:00,61.9,50.0,30.02,South,189,0.0,2.2,65,0.00,,,0.00,VWS V14.01,2013-08-30 14:23:00,
2013-08-30 07:28:00,61.9,50.0,30.02,SSE,150,0.0,2.2,65,0.00,,,0.00,VWS V14.01,2013-08-30 14:28:00,
2013-08-30 07:33:00,62.1,50.6,30.02,SW,225,2.2,2.2,66,0.00,,,0.00,VWS V14.01,2013-08-30 14:33:00,
2013-08-30 07:38:00,62.2,50.8,30.02,SSW,194,2.7,2.7,66,0.00,,,0.00,VWS V14.01,2013-08-30 14:38:00,
2013-08-30 07:43:00,62.2,50.8,30.02,South,191,0.0,0.0,66,0.00,,,0.00,VWS V14.01,2013-08-30 14:43:00,
2013-08-30 07:48:00,62.2,50.8,30.02,SE,131,0.0,0.0,66,0.00,,,0.00,VWS V14.01,2013-08-30 14:48:00,
2013-08-30 07:53:00,62.4,50.9,30.02,SSE,148,0.0,2.7,66,0.00,,,0.00,VWS V14.01,2013-08-30 14:53:00,
2013-08-30 07:58:00,62.6,51.1,30.02,SSE,148,0.0,0.0,66,0.00,,,0.00,VWS V14.01,2013-08-30 14:58:00,
2013-08-30 08:03:00,62.6,51.5,30.02,SSE,148,0.0,0.0,67,0.00,,,0.00,VWS V14.01,2013-08-30 15:03:00,
2013-08-30 08:08:00,62.8,51.7,30.02,SSE,148,0.0,0.0,67,0.00,,,0.00,VWS V14.01,2013-08-30 15:08:00,
2013-08-30 08:13:00,63.0,51.8,30.02,South,180,0.0,2.7,67,0.00,,,0.00,VWS V14.01,2013-08-30 15:13:00,
2013-08-30 08:18:00,63.0,51.8,30.02,South,179,0.0,2.7,67,0.00,,,0.00,VWS V14.01,2013-08-30 15:18:00,
2013-08-30 08:23:00,63.0,51.8,30.02,South,180,2.7,2.7,67,0.00,,,0.00,VWS V14.01,2013-08-30 15:23:00,
2013-08-30 08:28:00,63.1,52.0,30.02,South,180,0.0,0.0,67,0.00,,,0.00,VWS V14.01,2013-08-30 15:28:00,
2013-08-30 08:33:00,63.5,52.8,30.02,South,180,2.2,2.2,68,0.00,,,0.00,VWS V14.01,2013-08-30 15:33:00,
2013-08-30 08:38:00,63.5,52.8,30.02,South,180,0.0,0.0,68,0.00,,,0.00,VWS V14.01,2013-08-30 15:38:00,
2013-08-30 08:43:00,63.9,53.1,30.02,South,181,2.2,2.2,68,0.00,,,0.00,VWS V14.01,2013-08-30 15:43:00,
2013-08-30 08:48:00,64.0,53.3,30.02,SSE,165,0.0,0.0,68,0.00,,,0.00,VWS V14.01,2013-08-30 15:48:00,
2013-08-30 08:53:00,64.4,54.0,30.02,SSE,165,0.0,0.0,69,0.00,,,0.00,VWS V14.01,2013-08-30 15:53:00,
2013-08-30 08:58:00,64.6,54.2,30.02,SW,221,0.0,0.0,69,0.00,,,0.00,VWS V14.01,2013-08-30 15:58:00,
2013-08-30 09:03:00,65.1,54.7,30.02,SW,222,0.0,0.0,69,0.00,,,0.00,VWS V14.01,2013-08-30 16:03:00,
2013-08-30 09:08:00,65.3,54.9,30.05,SSE,166,0.0,0.0,69,0.00,,,0.00,VWS V14.01,2013-08-30 16:08:00,
2013-08-30 09:13:00,65.7,55.6,30.05,SW,222,0.0,3.1,70,0.00,,,0.00,VWS V14.01,2013-08-30 16:13:00,
2013-08-30 09:18:00,66.2,56.1,30.05,SSE,166,0.0,0.0,70,0.00,,,0.00,VWS V14.01,2013-08-30 16:18:00,
2013-08-30 09:23:00,66.7,56.7,30.05,South,186,3.1,3.1,70,0.00,,,0.00,VWS V14.01,2013-08-30 16:23:00,
2013-08-30 09:28:00,67.1,57.0,30.05,SSW,205,3.1,3.1,70,0.00,,,0.00,VWS V14.01,2013-08-30 16:28:00,
2013-08-30 09:33:00,67.8,57.7,30.05,SSW,202,2.7,2.7,70,0.00,,,0.00,VWS V14.01,2013-08-30 16:33:00,
2013-08-30 09:38:00,68.2,57.6,30.05,SSW,201,0.0,0.0,69,0.00,,,0.00,VWS V14.01,2013-08-30 16:38:00,
2013-08-30 09:43:00,68.9,57.9,30.05,SSW,206,0.0,2.2,68,0.00,,,0.00,VWS V14.01,2013-08-30 16:43:00,
2013-08-30 09:48:00,69.4,58.0,30.05,South,187,0.0,3.6,67,0.00,,,0.00,VWS V14.01,2013-08-30 16:48:00,
2013-08-30 09:53:00,69.8,55.8,30.05,SSE,167,3.1,4.9,61,0.00,,,0.00,VWS V14.01,2013-08-30 16:53:00,
2013-08-30 09:58:00,70.5,53.6,30.05,SSE,167,3.1,3.1,55,0.00,,,0.00,VWS V14.01,2013-08-30 16:58:00,
2013-08-30 10:03:00,70.7,51.7,30.05,SSW,204,2.7,3.1,51,0.00,,,0.00,VWS V14.01,2013-08-30 17:03:00,
2013-08-30 10:08:00,71.1,49.3,30.05,South,179,2.2,2.2,46,0.00,,,0.00,VWS V14.01,2013-08-30 17:08:00,
2013-08-30 10:13:00,71.2,48.2,30.05,South,179,0.0,2.7,44,0.00,,,0.00,VWS V14.01,2013-08-30 17:13:00,
2013-08-30 10:18:00,71.8,48.1,30.05,South,179,2.7,3.6,43,0.00,,,0.00,VWS V14.01,2013-08-30 17:18:00,
2013-08-30 10:23:00,72.1,47.8,30.02,WSW,237,4.9,5.4,42,0.00,,,0.00,VWS V14.01,2013-08-30 17:23:00,
2013-08-30 10:28:00,72.3,46.0,30.02,SW,224,5.4,5.4,39,0.00,,,0.00,VWS V14.01,2013-08-30 17:28:00,
2013-08-30 10:33:00,72.5,41.8,30.02,SSW,203,3.1,3.1,33,0.00,,,0.00,VWS V14.01,2013-08-30 17:33:00,
2013-08-30 10:38:00,72.7,38.6,30.02,WSW,246,3.6,3.6,29,0.00,,,0.00,VWS V14.01,2013-08-30 17:38:00,
2013-08-30 10:43:00,72.7,34.9,30.02,SW,233,4.9,4.9,25,0.00,,,0.00,VWS V14.01,2013-08-30 17:43:00,
2013-08-30 10:48:00,72.7,33.8,30.02,SW,229,2.2,2.2,24,0.00,,,0.00,VWS V14.01,2013-08-30 17:48:00,
2013-08-30 10:53:00,72.5,32.6,30.02,SSW,202,0.0,0.0,23,0.00,,,0.00,VWS V14.01,2013-08-30 17:53:00,
2013-08-30 10:58:00,72.7,33.8,30.02,SSW,203,0.0,3.1,24,0.00,,,0.00,VWS V14.01,2013-08-30 17:58:00,
2013-08-30 11:03:00,72.9,32.9,30.02,South,181,2.7,4.0,23,0.00,,,0.00,VWS V14.01,2013-08-30 18:03:00,
2013-08-30 11:08:00,73.0,33.1,30.05,SSW,210,3.6,3.6,23,0.00,,,0.00,VWS V14.01,2013-08-30 18:08:00,
2013-08-30 11:13:00,73.6,32.4,30.05,South,182,0.0,0.0,22,0.00,,,0.00,VWS V14.01,2013-08-30 18:13:00,
2013-08-30 11:18:00,73.9,32.7,30.05,SW,217,2.2,2.2,22,0.00,,,0.00,VWS V14.01,2013-08-30 18:18:00,
2013-08-30 11:23:00,74.3,31.9,30.05,SSW,196,0.0,3.6,21,0.00,,,0.00,VWS V14.01,2013-08-30 18:23:00,
2013-08-30 11:28:00,74.3,31.9,30.05,SSW,208,4.0,5.4,21,0.00,,,0.00,VWS V14.01,2013-08-30 18:28:00,
2013-08-30 11:33:00,74.1,31.7,30.05,South,191,3.6,3.6,21,0.00,,,0.00,VWS V14.01,2013-08-30 18:33:00,
2013-08-30 11:38:00,74.3,31.9,30.05,WSW,246,3.6,3.6,21,0.00,,,0.00,VWS V14.01,2013-08-30 18:38:00,
2013-08-30 11:43:00,75.0,32.5,30.05,SW,225,4.0,4.0,21,0.00,,,0.00,VWS V14.01,2013-08-30 18:43:00,
2013-08-30 11:48:00,75.0,28.7,30.05,WSW,244,4.9,4.9,18,0.00,,,0.00,VWS V14.01,2013-08-30 18:48:00,
2013-08-30 11:53:00,75.2,28.8,30.05,South,180,2.7,3.1,18,0.00,,,0.00,VWS V14.01,2013-08-30 18:53:00,
2013-08-30 11:58:00,75.6,24.7,30.05,SW,235,0.0,0.0,15,0.00,,,0.00,VWS V14.01,2013-08-30 18:58:00,
2013-08-30 12:03:00,75.9,25.0,30.05,SSE,161,2.2,2.7,15,0.00,,,0.00,VWS V14.01,2013-08-30 19:03:00,
2013-08-30 12:08:00,75.9,21.6,30.02,South,189,2.7,3.6,13,0.00,,,0.00,VWS V14.01,2013-08-30 19:08:00,
2013-08-30 12:13:00,75.9,21.6,30.02,SSW,209,0.0,2.2,13,0.00,,,0.00,VWS V14.01,2013-08-30 19:13:00,
2013-08-30 12:18:00,76.6,22.1,30.02,South,178,3.6,3.6,13,0.00,,,0.00,VWS V14.01,2013-08-30 19:18:00,
2013-08-30 12:23:00,77.0,22.4,30.02,SSW,212,2.7,4.0,13,0.00,,,0.00,VWS V14.01,2013-08-30 19:23:00,
2013-08-30 12:28:00,77.2,22.6,30.02,SW,226,2.7,3.6,13,0.00,,,0.00,VWS V14.01,2013-08-30 19:28:00,
2013-08-30 12:33:00,77.5,16.7,30.02,WSW,254,3.1,4.0,10,0.00,,,0.00,VWS V14.01,2013-08-30 19:33:00,
2013-08-30 12:38:00,77.9,17.0,30.02,SSW,208,2.7,3.6,10,0.00,,,0.00,VWS V14.01,2013-08-30 19:38:00,
2013-08-30 12:43:00,78.6,17.5,30.02,SW,217,3.6,3.6,10,0.00,,,0.00,VWS V14.01,2013-08-30 19:43:00,
2013-08-30 12:48:00,78.8,17.7,30.02,SW,231,4.0,4.0,10,0.00,,,0.00,VWS V14.01,2013-08-30 19:48:00,
2013-08-30 12:53:00,78.6,17.5,30.02,WSW,239,2.2,2.2,10,0.00,,,0.00,VWS V14.01,2013-08-30 19:53:00,
2013-08-30 12:58:00,79.0,17.8,30.02,SW,229,4.0,5.4,10,0.00,,,0.00,VWS V14.01,2013-08-30 19:58:00,
2013-08-30 13:03:00,79.0,17.8,30.02,SSE,149,3.1,3.1,10,0.00,,,0.00,VWS V14.01,2013-08-30 20:03:00,
2013-08-30 13:08:00,79.2,18.0,30.02,SSW,193,3.1,3.1,10,0.00,,,0.00,VWS V14.01,2013-08-30 20:08:00,
2013-08-30 13:13:00,79.0,17.8,30.02,SW,235,5.4,5.4,10,0.00,,,0.00,VWS V14.01,2013-08-30 20:13:00,
2013-08-30 13:18:00,79.2,18.0,30.02,SW,223,5.4,5.4,10,0.00,,,0.00,VWS V14.01,2013-08-30 20:18:00,
2013-08-30 13:23:00,79.0,17.8,30.02,SSW,201,3.1,3.6,10,0.00,,,0.00,VWS V14.01,2013-08-30 20:23:00,
2013-08-30 13:28:00,79.2,18.0,30.02,SW,216,3.6,3.6,10,0.00,,,0.00,VWS V14.01,2013-08-30 20:28:00,
2013-08-30 13:33:00,79.0,17.8,30.02,SSW,199,5.4,5.4,10,0.00,,,0.00,VWS V14.01,2013-08-30 20:33:00,
2013-08-30 13:38:00,78.6,17.5,30.02,WNW,292,3.6,3.6,10,0.00,,,0.00,VWS V14.01,2013-08-30 20:38:00,
2013-08-30 13:43:00,78.1,17.1,30.02,SSW,196,4.0,4.0,10,0.00,,,0.00,VWS V14.01,2013-08-30 20:43:00,
2013-08-30 13:48:00,77.9,17.0,30.02,West,273,5.4,5.8,10,0.00,,,0.00,VWS V14.01,2013-08-30 20:48:00,
2013-08-30 13:53:00,78.1,17.1,30.02,WSW,248,3.1,3.6,10,0.00,,,0.00,VWS V14.01,2013-08-30 20:53:00,
2013-08-30 13:58:00,78.6,17.5,30.02,SSW,208,5.4,5.4,10,0.00,,,0.00,VWS V14.01,2013-08-30 20:58:00,
2013-08-30 14:03:00,78.8,17.7,30.02,South,179,3.6,3.6,10,0.00,,,0.00,VWS V14.01,2013-08-30 21:03:00,
2013-08-30 14:08:00,78.8,17.7,29.99,West,260,3.6,6.3,10,0.00,,,0.00,VWS V14.01,2013-08-30 21:08:00,
2013-08-30 14:13:00,78.6,17.5,29.99,SSW,208,5.4,5.8,10,0.00,,,0.00,VWS V14.01,2013-08-30 21:13:00,
2013-08-30 14:18:00,78.6,17.5,29.99,SW,229,3.1,3.6,10,0.00,,,0.00,VWS V14.01,2013-08-30 21:18:00,
2013-08-30 14:23:00,78.6,17.5,29.99,WSW,246,5.4,5.4,10,0.00,,,0.00,VWS V14.01,2013-08-30 21:23:00,
2013-08-30 14:28:00,78.6,17.5,29.99,WSW,240,5.8,5.8,10,0.00,,,0.00,VWS V14.01,2013-08-30 21:28:00,
2013-08-30 14:33:00,78.4,12.3,29.99,WSW,251,5.8,5.8,8,0.00,,,0.00,VWS V14.01,2013-08-30 21:33:00,
2013-08-30 14:38:00,77.9,17.0,29.99,SSW,211,3.6,3.6,10,0.00,,,0.00,VWS V14.01,2013-08-30 21:38:00,
2013-08-30 14:43:00,77.4,16.6,29.99,SW,228,4.9,5.4,10,0.00,,,0.00,VWS V14.01,2013-08-30 21:43:00,
2013-08-30 14:48:00,77.2,16.5,29.99,SSW,211,4.9,6.3,10,0.00,,,0.00,VWS V14.01,2013-08-30 21:48:00,
2013-08-30 14:53:00,77.4,16.6,29.99,South,171,4.0,4.0,10,0.00,,,0.00,VWS V14.01,2013-08-30 21:53:00,
2013-08-30 14:58:00,77.5,16.7,29.99,SSW,201,3.1,3.1,10,0.00,,,0.00,VWS V14.01,2013-08-30 21:58:00,
2013-08-30 15:03:00,77.5,16.7,29.99,SSE,164,3.1,3.1,10,0.00,,,0.00,VWS V14.01,2013-08-30 22:03:00,
2013-08-30 15:08:00,77.5,16.7,29.99,South,172,2.7,2.7,10,0.00,,,0.00,VWS V14.01,2013-08-30 22:08:00,
2013-08-30 15:13:00,77.9,17.0,29.99,WSW,241,3.1,4.0,10,0.00,,,0.00,VWS V14.01,2013-08-30 22:13:00,
2013-08-30 15:18:00,78.3,17.3,29.99,SSW,213,0.0,2.7,10,0.00,,,0.00,VWS V14.01,2013-08-30 22:18:00,
2013-08-30 15:23:00,78.3,17.3,29.99,SSW,193,3.1,5.8,10,0.00,,,0.00,VWS V14.01,2013-08-30 22:23:00,
2013-08-30 15:28:00,77.9,17.0,29.99,WSW,239,3.1,4.0,10,0.00,,,0.00,VWS V14.01,2013-08-30 22:28:00,
2013-08-30 15:33:00,77.4,16.6,29.99,SW,218,4.0,4.0,10,0.00,,,0.00,VWS V14.01,2013-08-30 22:33:00,
2013-08-30 15:38:00,77.5,16.7,29.96,South,180,3.1,3.6,10,0.00,,,0.00,VWS V14.01,2013-08-30 22:38:00,
2013-08-30 15:43:00,78.1,17.1,29.96,SSW,209,3.1,4.5,10,0.00,,,0.00,VWS V14.01,2013-08-30 22:43:00,
2013-08-30 15:48:00,78.3,17.3,29.96,SSW,209,4.0,4.0,10,0.00,,,0.00,VWS V14.01,2013-08-30 22:48:00,
2013-08-30 15:53:00,78.3,17.3,29.96,SW,220,3.1,4.0,10,0.00,,,0.00,VWS V14.01,2013-08-30 22:53:00,
2013-08-30 15:58:00,78.8,17.7,29.96,WSW,237,5.8,5.8,10,0.00,,,0.00,VWS V14.01,2013-08-30 22:58:00,
2013-08-30 16:03:00,79.0,17.8,29.96,SW,219,3.1,3.1,10,0.00,,,0.00,VWS V14.01,2013-08-30 23:03:00,
2013-08-30 16:08:00,79.5,18.2,29.96,WSW,238,6.7,6.7,10,0.00,,,0.00,VWS V14.01,2013-08-30 23:08:00,
2013-08-30 16:13:00,79.7,18.4,29.96,SW,228,5.8,5.8,10,0.00,,,0.00,VWS V14.01,2013-08-30 23:13:00,
2013-08-30 16:18:00,80.1,18.6,29.96,SSW,205,3.6,3.6,10,0.00,,,0.00,VWS V14.01,2013-08-30 23:18:00,
2013-08-30 16:23:00,80.4,18.9,29.96,SW,227,4.9,4.9,10,0.00,,,0.00,VWS V14.01,2013-08-30 23:23:00,
2013-08-30 16:28:00,80.4,18.9,29.96,SW,236,2.7,3.1,10,0.00,,,0.00,VWS V14.01,2013-08-30 23:28:00,
2013-08-30 16:33:00,80.8,11.0,29.96,SW,229,3.6,3.6,7,0.00,,,0.00,VWS V14.01,2013-08-30 23:33:00,
2013-08-30 16:38:00,80.8,11.0,29.96,SSW,193,2.7,3.6,7,0.00,,,0.00,VWS V14.01,2013-08-30 23:38:00,
2013-08-30 16:43:00,80.8,11.0,29.96,South,188,3.1,3.1,7,0.00,,,0.00,VWS V14.01,2013-08-30 23:43:00,
2013-08-30 16:48:00,81.0,11.2,29.96,SW,225,3.6,3.6,7,0.00,,,0.00,VWS V14.01,2013-08-30 23:48:00,
2013-08-30 16:53:00,81.1,11.3,29.96,SW,228,2.7,3.1,7,0.00,,,0.00,VWS V14.01,2013-08-30 23:53:00,
2013-08-30 16:58:00,81.5,11.6,29.96,SSW,208,4.9,4.9,7,0.00,,,0.00,VWS V14.01,2013-08-30 23:58:00,
2013-08-30 17:03:00,81.5,11.6,29.96,SW,218,4.9,4.9,7,0.00,,,0.00,VWS V14.01,2013-08-31 00:03:00,
2013-08-30 17:08:00,81.9,11.8,29.96,SSW,206,3.6,5.4,7,0.00,,,0.00,VWS V14.01,2013-08-31 00:08:00,
2013-08-30 17:13:00,81.7,11.7,29.96,SW,235,2.7,2.7,7,0.00,,,0.00,VWS V14.01,2013-08-31 00:13:00,
2013-08-30 17:18:00,81.5,11.6,29.96,SSW,199,2.2,3.1,7,0.00,,,0.00,VWS V14.01,2013-08-31 00:18:00,
2013-08-30 17:23:00,81.3,11.4,29.96,SSW,211,3.1,4.0,7,0.00,,,0.00,VWS V14.01,2013-08-31 00:23:00,
2013-08-30 17:28:00,81.3,11.4,29.96,SSW,195,0.0,2.7,7,0.00,,,0.00,VWS V14.01,2013-08-31 00:28:00,
2013-08-30 17:33:00,81.3,11.4,29.96,SW,228,3.1,3.1,7,0.00,,,0.00,VWS V14.01,2013-08-31 00:33:00,
2013-08-30 17:38:00,81.0,11.2,29.93,SW,214,0.0,0.0,7,0.00,,,0.00,VWS V14.01,2013-08-31 00:38:00,
2013-08-30 17:43:00,80.8,11.0,29.93,WSW,243,2.2,2.2,7,0.00,,,0.00,VWS V14.01,2013-08-31 00:43:00,
2013-08-30 17:48:00,80.8,11.0,29.93,SW,214,4.0,4.0,7,0.00,,,0.00,VWS V14.01,2013-08-31 00:48:00,
2013-08-30 17:53:00,80.6,10.9,29.93,SW,225,3.6,3.6,7,0.00,,,0.00,VWS V14.01,2013-08-31 00:53:00,
2013-08-30 17:58:00,80.4,10.8,29.93,SW,229,4.0,4.0,7,0.00,,,0.00,VWS V14.01,2013-08-31 00:58:00,
2013-08-30 18:03:00,80.1,10.5,29.93,WSW,238,4.0,4.0,7,0.00,,,0.00,VWS V14.01,2013-08-31 01:03:00,
2013-08-30 18:08:00,79.9,10.4,29.93,SW,229,3.6,3.6,7,0.00,,,0.00,VWS V14.01,2013-08-31 01:08:00,
2013-08-30 18:13:00,79.9,10.4,29.93,SW,232,5.4,5.4,7,0.00,,,0.00,VWS V14.01,2013-08-31 01:13:00,
2013-08-30 18:18:00,79.7,10.2,29.93,SW,220,3.6,3.6,7,0.00,,,0.00,VWS V14.01,2013-08-31 01:18:00,
2013-08-30 18:23:00,79.3,10.0,29.93,SW,224,2.7,2.7,7,0.00,,,0.00,VWS V14.01,2013-08-31 01:23:00,
2013-08-30 18:28:00,79.0,9.7,29.93,SW,234,4.0,4.0,7,0.00,,,0.00,VWS V14.01,2013-08-31 01:28:00,
2013-08-30 18:33:00,78.6,12.4,29.93,SW,222,2.7,2.7,8,0.00,,,0.00,VWS V14.01,2013-08-31 01:33:00,
2013-08-30 18:38:00,78.4,12.3,29.93,SSW,213,2.2,2.2,8,0.00,,,0.00,VWS V14.01,2013-08-31 01:38:00,
2013-08-30 18:43:00,78.1,12.0,29.93,SE,143,3.6,3.6,8,0.00,,,0.00,VWS V14.01,2013-08-31 01:43:00,
2013-08-30 18:48:00,77.5,11.6,29.93,SW,222,2.7,2.7,8,0.00,,,0.00,VWS V14.01,2013-08-31 01:48:00,
2013-08-30 18:53:00,77.2,11.4,29.93,South,175,2.7,3.1,8,0.00,,,0.00,VWS V14.01,2013-08-31 01:53:00,
2013-08-30 18:58:00,77.0,11.2,29.93,South,176,0.0,2.7,8,0.00,,,0.00,VWS V14.01,2013-08-31 01:58:00,
2013-08-30 19:03:00,77.0,11.2,29.93,South,176,0.0,0.0,8,0.00,,,0.00,VWS V14.01,2013-08-31 02:03:00,
2013-08-30 19:08:00,76.5,10.8,29.93,South,176,3.1,3.1,8,0.00,,,0.00,VWS V14.01,2013-08-31 02:08:00,
2013-08-30 19:13:00,76.3,10.7,29.93,SSW,199,2.2,3.6,8,0.00,,,0.00,VWS V14.01,2013-08-31 02:13:00,
2013-08-30 19:18:00,75.6,15.2,29.93,SW,214,2.7,2.7,10,0.00,,,0.00,VWS V14.01,2013-08-31 02:18:00,
2013-08-30 19:23:00,75.0,9.8,29.93,SW,215,0.0,3.6,8,0.00,,,0.00,VWS V14.01,2013-08-31 02:23:00,
2013-08-30 19:28:00,74.1,9.1,29.93,South,187,0.0,0.0,8,0.00,,,0.00,VWS V14.01,2013-08-31 02:28:00,
2013-08-30 19:33:00,73.8,16.0,29.93,SW,220,3.1,3.1,11,0.00,,,0.00,VWS V14.01,2013-08-31 02:33:00,
2013-08-30 19:38:00,72.9,15.3,29.93,SW,234,2.2,2.2,11,0.00,,,0.00,VWS V14.01,2013-08-31 02:38:00,
2013-08-30 19:43:00,71.8,14.5,29.93,SW,234,0.0,0.0,11,0.00,,,0.00,VWS V14.01,2013-08-31 02:43:00,
2013-08-30 19:48:00,70.9,15.8,29.93,SW,232,0.0,0.0,12,0.00,,,0.00,VWS V14.01,2013-08-31 02:48:00,
2013-08-30 19:53:00,70.2,18.8,29.93,SW,232,0.0,0.0,14,0.00,,,0.00,VWS V14.01,2013-08-31 02:53:00,
2013-08-30 19:58:00,69.6,20.0,29.93,SW,232,0.0,0.0,15,0.00,,,0.00,VWS V14.01,2013-08-31 02:58:00,
2013-08-30 20:03:00,68.9,22.3,29.93,SW,232,0.0,0.0,17,0.00,,,0.00,VWS V14.01,2013-08-31 03:03:00,
2013-08-30 20:08:00,68.5,25.9,29.93,SW,215,2.2,2.2,20,0.00,,,0.00,VWS V14.01,2013-08-31 03:08:00,
2013-08-30 20:13:00,68.0,25.5,29.93,SW,215,0.0,0.0,20,0.00,,,0.00,VWS V14.01,2013-08-31 03:13:00,
2013-08-30 20:18:00,67.6,27.5,29.93,SW,215,0.0,0.0,22,0.00,,,0.00,VWS V14.01,2013-08-31 03:18:00,
2013-08-30 20:23:00,67.1,28.1,29.93,SW,215,0.0,0.0,23,0.00,,,0.00,VWS V14.01,2013-08-31 03:23:00,
2013-08-30 20:28:00,66.7,27.8,29.93,SW,215,0.0,0.0,23,0.00,,,0.00,VWS V14.01,2013-08-31 03:28:00,
2013-08-30 20:33:00,66.7,27.8,29.93,SW,215,0.0,0.0,23,0.00,,,0.00,VWS V14.01,2013-08-31 03:33:00,
2013-08-30 20:38:00,66.7,27.8,29.93,SW,215,0.0,0.0,23,0.00,,,0.00,VWS V14.01,2013-08-31 03:38:00,
2013-08-30 20:43:00,66.6,28.7,29.93,SW,215,0.0,0.0,24,0.00,,,0.00,VWS V14.01,2013-08-31 03:43:00,
2013-08-30 20:48:00,66.2,28.4,29.93,SW,216,0.0,0.0,24,0.00,,,0.00,VWS V14.01,2013-08-31 03:48:00,
2013-08-30 20:53:00,65.8,29.1,29.93,SW,216,0.0,0.0,25,0.00,,,0.00,VWS V14.01,2013-08-31 03:53:00,
2013-08-30 20:58:00,65.5,29.7,29.93,SW,216,0.0,0.0,26,0.00,,,0.00,VWS V14.01,2013-08-31 03:58:00,
2013-08-30 21:01:00,65.5,29.7,29.93,SW,216,0.0,0.0,26,0.00,,,0.00,VWS V14.01,2013-08-31 04:01:00,
2013-08-30 21:06:00,65.1,31.2,29.96,SW,216,0.0,0.0,28,0.00,,,0.00,VWS V14.01,2013-08-31 04:06:00,
2013-08-30 21:11:00,64.8,31.8,29.96,SW,216,0.0,0.0,29,0.00,,,0.00,VWS V14.01,2013-08-31 04:11:00,
2013-08-30 21:16:00,64.6,32.5,29.96,SW,216,0.0,0.0,30,0.00,,,0.00,VWS V14.01,2013-08-31 04:16:00,
2013-08-30 21:21:00,64.4,32.3,29.96,SW,216,0.0,0.0,30,0.00,,,0.00,VWS V14.01,2013-08-31 04:21:00,
2013-08-30 21:26:00,64.4,33.1,29.96,SW,216,0.0,0.0,31,0.00,,,0.00,VWS V14.01,2013-08-31 04:26:00,
2013-08-30 21:31:00,64.4,33.1,29.96,SW,216,0.0,0.0,31,0.00,,,0.00,VWS V14.01,2013-08-31 04:31:00,
2013-08-30 21:36:00,64.4,33.9,29.96,SW,216,0.0,0.0,32,0.00,,,0.00,VWS V14.01,2013-08-31 04:36:00,
2013-08-30 21:41:00,64.8,34.2,29.96,SW,216,0.0,0.0,32,0.00,,,0.00,VWS V14.01,2013-08-31 04:41:00,
2013-08-30 21:46:00,64.8,35.0,29.96,SSE,157,2.7,2.7,33,0.00,,,0.00,VWS V14.01,2013-08-31 04:46:00,
2013-08-30 21:51:00,65.1,35.3,29.96,SSE,157,0.0,0.0,33,0.00,,,0.00,VWS V14.01,2013-08-31 04:51:00,
2013-08-30 21:56:00,65.1,34.6,29.96,SSW,206,0.0,0.0,32,0.00,,,0.00,VWS V14.01,2013-08-31 04:56:00,
2013-08-30 22:01:00,65.1,34.6,29.96,SSW,206,0.0,2.7,32,0.00,,,0.00,VWS V14.01,2013-08-31 05:01:00,
2013-08-30 22:06:00,64.9,34.4,29.96,SSW,205,0.0,0.0,32,0.00,,,0.00,VWS V14.01,2013-08-31 05:06:00,
2013-08-30 22:11:00,64.8,34.2,29.96,SSW,212,0.0,0.0,32,0.00,,,0.00,VWS V14.01,2013-08-31 05:11:00,
2013-08-30 22:16:00,64.6,34.8,29.96,South,186,2.2,2.2,33,0.00,,,0.00,VWS V14.01,2013-08-31 05:16:00,
2013-08-30 22:21:00,64.4,34.7,29.96,South,186,0.0,0.0,33,0.00,,,0.00,VWS V14.01,2013-08-31 05:21:00,
2013-08-30 22:26:00,64.2,34.5,29.96,SSW,208,0.0,0.0,33,0.00,,,0.00,VWS V14.01,2013-08-31 05:26:00,
2013-08-30 22:31:00,64.0,35.1,29.96,SSE,168,0.0,2.7,34,0.00,,,0.00,VWS V14.01,2013-08-31 05:31:00,
2013-08-30 22:36:00,63.9,35.0,29.96,SSE,168,0.0,0.0,34,0.00,,,0.00,VWS V14.01,2013-08-31 05:36:00,
2013-08-30 22:41:00,63.7,34.8,29.96,South,169,0.0,0.0,34,0.00,,,0.00,VWS V14.01,2013-08-31 05:41:00,
2013-08-30 22:46:00,63.5,34.7,29.96,SSE,168,0.0,0.0,34,0.00,,,0.00,VWS V14.01,2013-08-31 05:46:00,
2013-08-30 22:51:00,63.1,34.3,29.96,South,169,0.0,0.0,34,0.00,,,0.00,VWS V14.01,2013-08-31 05:51:00,
2013-08-30 22:56:00,63.0,34.2,29.96,SSE,168,0.0,0.0,34,0.00,,,0.00,VWS V14.01,2013-08-31 05:56:00,
2013-08-30 23:01:00,62.8,34.8,29.96,SSE,168,0.0,0.0,35,0.00,,,0.00,VWS V14.01,2013-08-31 06:01:00,
2013-08-30 23:06:00,62.6,34.6,29.96,SSE,168,0.0,0.0,35,0.00,,,0.00,VWS V14.01,2013-08-31 06:06:00,
2013-08-30 23:11:00,62.4,34.4,29.96,South,169,0.0,0.0,35,0.00,,,0.00,VWS V14.01,2013-08-31 06:11:00,
2013-08-30 23:16:00,62.2,35.0,29.96,SSE,168,0.0,0.0,36,0.00,,,0.00,VWS V14.01,2013-08-31 06:16:00,
2013-08-30 23:21:00,62.2,35.0,29.96,SSE,168,0.0,0.0,36,0.00,,,0.00,VWS V14.01,2013-08-31 06:21:00,
2013-08-30 23:26:00,62.1,34.8,29.96,South,169,0.0,0.0,36,0.00,,,0.00,VWS V14.01,2013-08-31 06:26:00,
2013-08-30 23:31:00,62.1,34.8,29.96,South,169,0.0,0.0,36,0.00,,,0.00,VWS V14.01,2013-08-31 06:31:00,
2013-08-30 23:36:00,62.1,35.5,29.96,South,169,0.0,0.0,37,0.00,,,0.00,VWS V14.01,2013-08-31 06:36:00,
2013-08-30 23:41:00,62.1,35.5,29.96,SSE,168,0.0,0.0,37,0.00,,,0.00,VWS V14.01,2013-08-31 06:41:00,
2013-08-30 23:46:00,62.1,36.2,29.96,SSE,168,0.0,0.0,38,0.00,,,0.00,VWS V14.01,2013-08-31 06:46:00,
2013-08-30 23:51:00,61.9,36.0,29.96,SSW,203,0.0,2.7,38,0.00,,,0.00,VWS V14.01,2013-08-31 06:51:00,
2013-08-30 23:56:00,61.9,36.0,29.96,SSW,203,0.0,0.0,38,0.00,,,0.00,VWS V14.01,2013-08-31 06:56:00,